Flag for Norway Weather past 2 weeks in Florø, Norway

Now
52 °F

Light rain. Mostly cloudy.


Feels Like: 47 °F
Forecast: 53 / 57 °F
Wind: 14 mph from North

Location: Floro

Current Time: Sep 5, 2015 at 5:22:50 PM

Latest Report: Sep 5, 2015 at 4:50 PM


Visibility: N/A

Pressure: 29.86 "Hg

Humidity: 88%

Dew point: 48 °F

Location of FlorøLocation

Historic Weather in Florø — Graph

°F

Florø temperature yesterday

Maximum temperature yesterday: 57 °F (at 9:20 AM)
Minimum temperature yesterday: 50 °F (at 8:50 PM)
Average temperature yesterday: 54 °F

Past Weeks' High & Low Weather Summary

 TemperatureHumidityPressure
High75 °F (Aug 24, 1:50 PM)100% (Aug 26, 7:50 AM)30.21 "Hg (Aug 26, 7:50 AM)
Low46 °F (Sep 5, 5:20 AM)36% (Aug 24, 1:50 PM)29.45 "Hg (Aug 26, 7:50 PM)
Average60 °F73%29.82 "Hg
* Reported Aug 21 3:20 PM — Sep 5 3:50 PM, Florø, Weather by CustomWeather, © 2015

Note: Actual official high and low records may vary slightly from our data, if they occured in-between our weather recording intervals... More about our weather records

Advertising

Florø weather history for previous 24 hours

 ConditionsComfort  
Time TempWeatherWind HumidityBarometerVisibility
3:50 PM
Sat, Sep 5
54 °FScattered showers. Scattered clouds.10 mph77%29.83 "HgN/A
3:20 PM52 °FScattered showers. Scattered clouds.16 mph77%29.83 "HgN/A
2:50 PM50 °FLight rain. Overcast.8 mph88%29.80 "HgN/A
2:20 PM50 °FLight rain. Fog.7 mph88%29.80 "HgN/A
1:50 PM50 °FLight rain. Overcast.9 mph94%29.80 "HgN/A
1:20 PM50 °FSprinkles. More clouds than sun.14 mph88%29.77 "HgN/A
12:50 PM52 °FScattered showers. Broken clouds.13 mph82%29.77 "HgN/A
12:20 PM52 °FScattered showers. Broken clouds.12 mph77%29.77 "HgN/A
11:50 AM50 °FScattered showers. Broken clouds.9 mph82%29.74 "HgN/A
11:20 AM50 °FSprinkles. Broken clouds.9 mph88%29.74 "HgN/A
10:50 AM50 °FSprinkles. Broken clouds.10 mph88%29.71 "HgN/A
10:20 AM52 °FSprinkles. Broken clouds.15 mph88%29.71 "HgN/A
9:50 AM52 °FSprinkles. Broken clouds.17 mph82%29.68 "HgN/A
9:20 AM52 °FSprinkles. Broken clouds.17 mph88%29.68 "HgN/A
8:50 AM52 °FSprinkles. Broken clouds.21 mph82%29.68 "HgN/A
8:20 AM54 °FScattered showers. Scattered clouds.17 mph72%29.68 "HgN/A
7:50 AM52 °FSprinkles. Scattered clouds.17 mph82%29.65 "HgN/A
7:20 AM52 °FScattered showers. Passing clouds.21 mph88%29.65 "HgN/A
6:50 AM48 °FSprinkles. Partly cloudy.14 mph94%29.65 "HgN/A
6:20 AM48 °FSprinkles. Partly cloudy.8 mph94%29.65 "HgN/A
5:50 AM48 °FSprinkles. Partly cloudy.3 mph87%29.62 "HgN/A
5:20 AM46 °FRain. Mostly cloudy.6 mph93%29.62 "HgN/A
4:50 AM48 °FHeavy rain. Fog.12 mph94%29.62 "HgN/A
4:20 AM48 °FHeavy rain. Dense fog.6 mph87%29.62 "Hg2 mi
3:50 AM48 °FLots of rain. Light fog.7 mph87%29.62 "Hg6 mi
3:20 AM50 °FRain showers. Passing clouds.14 mph82%29.65 "HgN/A
2:50 AM50 °FPassing clouds.26 mph76%29.65 "HgN/A
2:20 AM50 °FSprinkles. Partly cloudy.22 mph76%29.65 "HgN/A
1:50 AM52 °FPassing clouds.23 mph77%29.65 "HgN/A
1:20 AM52 °FSprinkles. Partly cloudy.22 mph77%29.65 "HgN/A
12:50 AM52 °FPassing clouds.24 mph77%29.65 "HgN/A
12:20 AM52 °FPartly cloudy.24 mph77%29.65 "HgN/A
11:20 PM
Fri, Sep 4
50 °FRain showers. Partly cloudy.18 mph88%29.65 "Hg3 mi
10:50 PM52 °FSprinkles. Partly cloudy.12 mph82%29.68 "HgN/A
10:20 PM52 °FPartly cloudy.22 mph82%29.68 "HgN/A
9:50 PM52 °FScattered showers. Passing clouds.16 mph88%29.68 "HgN/A
9:20 PM50 °FRain showers. Broken clouds.10 mph94%29.68 "Hg2 mi
8:50 PM50 °FRain showers. Broken clouds.10 mph94%29.71 "Hg2 mi
8:20 PM52 °FSprinkles. Broken clouds.12 mph88%29.71 "HgN/A
7:50 PM52 °FSprinkles. Broken clouds.15 mph88%29.71 "HgN/A
7:20 PM54 °FSprinkles. Broken clouds.12 mph88%29.74 "HgN/A
6:50 PM52 °FMixture of precip. Broken clouds.9 mph88%29.74 "HgN/A
6:20 PM55 °FScattered showers. Broken clouds.9 mph72%29.74 "HgN/A
5:50 PM55 °FBroken clouds.9 mph72%29.74 "HgN/A
5:20 PM55 °FBroken clouds.9 mph72%29.77 "HgN/A
Weather by CustomWeather, © 2015

See weather overviewHow to use our weather pages